Weather reports worldwide

Advertisment
Bologna/Borgo Panigale, Italy (16140): temperature & dewpoint: 10.07.2018 18:00:00 - 16.07.2018 18:00:00 (CEST)Bologna/Borgo Panigale, Italy (16140): wind speed: 10.07.2018 18:00:00 - 16.07.2018 18:00:00 (CEST)Bologna/Borgo Panigale, Italy (16140): wind direction: 10.07.2018 18:00:00 - 16.07.2018 18:00:00 (CEST)Bologna/Borgo Panigale, Italy (16140): reduced air pressure: 10.07.2018 18:00:00 - 16.07.2018 18:00:00 (CEST)Bologna/Borgo Panigale, Italy (16140): visibility: 10.07.2018 18:00:00 - 16.07.2018 18:00:00 (CEST)
Date & Time tt [°C] td [°C] ff [km/h] ff [kn] dd ppp [hPa] vv [km]
16.07.2018 18:00:00 - - - - - - -
16.07.2018 17:00:00 - - - - - - -
16.07.2018 16:00:00 26,0 21,0 11 6 NNE - 10
16.07.2018 15:00:00 29,0 20,0 11 6 NE - 10
16.07.2018 14:00:00 28,7 19,0 5 3 N 1011,0 10
16.07.2018 13:00:00 29,0 19,0 8 4 NNW - 10
16.07.2018 12:00:00 27,0 20,0 8 4 - - 10
16.07.2018 11:00:00 26,2 19,4 8 4 NNE 1013,0 10
16.07.2018 10:00:00 25,0 20,0 5 3 - - 10
16.07.2018 09:00:00 24,0 19,0 13 7 SSW - 10
16.07.2018 08:00:00 22,1 18,7 22 12 SSW 1014,0 10
16.07.2018 07:00:00 21,0 17,0 8 4 SW - 10
16.07.2018 06:00:00 21,0 18,0 11 6 NNE - 10
16.07.2018 05:00:00 20,8 18,8 8 4 NNE 1014,0 10
16.07.2018 04:00:00 - - - - - - -
16.07.2018 03:00:00 22,0 19,0 13 7 ESE - 10
16.07.2018 02:00:00 22,5 19,4 11 6 ENE 1014,0 10
16.07.2018 01:00:00 22,0 18,0 8 4 ENE - 10
16.07.2018 00:00:00 23,0 18,0 11 6 S - 10
15.07.2018 23:00:00 23,4 17,8 9 5 S 1013,0 10
15.07.2018 22:00:00 24,0 17,0 13 7 SSE - 10
15.07.2018 21:00:00 25,0 17,0 15 8 SSW - 10
15.07.2018 20:00:00 25,6 18,1 21 11 SSW 1012,0 10
15.07.2018 19:00:00 27,0 21,0 18 10 S - 10
15.07.2018 18:00:00 26,0 18,0 16 9 SSW - 10
15.07.2018 17:00:00 28,5 17,6 8 4 - 1013,0 10
15.07.2018 16:00:00 31,0 18,0 5 3 - - 10
15.07.2018 15:00:00 31,0 21,0 8 4 - - 10
15.07.2018 14:00:00 30,0 20,5 5 3 NNW 1014,0 10
15.07.2018 13:00:00 29,0 21,0 8 4 NNE - 10
15.07.2018 12:00:00 28,0 20,0 4 2 - - 10
15.07.2018 11:00:00 26,8 19,8 8 4 - 1015,0 10
15.07.2018 10:00:00 26,0 19,0 8 4 WNW - 10
15.07.2018 09:00:00 24,0 20,0 4 2 - - 10
15.07.2018 08:00:00 22,8 19,7 8 4 SW 1016,0 10
15.07.2018 07:00:00 21,0 20,0 5 3 SSW - 10
15.07.2018 06:00:00 21,0 19,0 5 3 SW - 10
15.07.2018 05:00:00 20,8 19,5 8 4 SW 1015,0 10
15.07.2018 04:00:00 21,0 19,0 2 1 - - 10
15.07.2018 03:00:00 21,0 19,0 2 1 - - 10
15.07.2018 02:00:00 21,1 19,5 8 4 SW 1016,0 10
15.07.2018 01:00:00 21,0 19,0 5 3 S - 10
15.07.2018 00:00:00 22,0 20,0 2 1 - - 10
14.07.2018 23:00:00 22,5 19,9 9 5 NNW 1016,0 10
14.07.2018 22:00:00 24,0 21,0 21 11 SSW - 8
14.07.2018 21:00:00 28,0 19,0 13 7 E - 10
14.07.2018 20:00:00 28,6 19,7 16 9 ESE 1014,0 10
14.07.2018 19:00:00 31,0 21,0 16 9 ESE - 10
14.07.2018 18:00:00 31,0 21,0 18 10 ESE - 10
14.07.2018 17:00:00 31,9 19,3 13 7 E 1014,0 10
14.07.2018 16:00:00 32,0 19,0 11 6 - - 10
14.07.2018 15:00:00 32,0 19,0 13 7 ENE - 10
14.07.2018 14:00:00 31,9 19,5 9 5 ENE 1016,0 10
14.07.2018 13:00:00 31,0 19,0 8 4 - - 10
14.07.2018 12:00:00 30,0 19,0 4 2 - - 10
14.07.2018 11:00:00 27,4 17,9 4 2 - 1018,0 10
14.07.2018 10:00:00 26,0 19,0 4 2 - - 10
14.07.2018 09:00:00 25,0 16,0 4 2 - - 10
14.07.2018 08:00:00 22,9 14,5 4 2 - 1019,0 10
14.07.2018 07:00:00 20,0 13,0 15 8 SSW - 10
14.07.2018 06:00:00 20,0 13,0 13 7 SSW - 10
14.07.2018 05:00:00 21,0 13,2 11 6 SSW 1018,0 10
14.07.2018 04:00:00 21,0 14,0 8 4 SSW - 10
14.07.2018 03:00:00 22,0 15,0 8 4 SSE - 10
14.07.2018 02:00:00 21,3 19,1 4 2 E 1018,0 10
14.07.2018 01:00:00 24,0 19,0 8 4 E - 10
14.07.2018 00:00:00 23,0 19,0 11 6 ESE - 10
13.07.2018 23:00:00 25,3 19,2 16 9 ESE 1017,0 20
13.07.2018 22:00:00 26,0 20,0 13 7 E - 10
13.07.2018 21:00:00 27,0 20,0 9 5 E - 10
13.07.2018 20:00:00 29,3 18,2 11 6 E 1016,0 10
13.07.2018 19:00:00 30,0 18,0 9 5 E - 10
13.07.2018 18:00:00 31,0 19,0 5 3 ESE - 10
13.07.2018 17:00:00 30,4 17,4 8 4 N 1016,0 10
13.07.2018 16:00:00 30,0 17,0 9 5 NNE - 10
13.07.2018 15:00:00 30,0 19,0 5 3 - - 10
13.07.2018 14:00:00 29,5 18,5 9 5 - 1018,0 10
13.07.2018 13:00:00 29,0 19,0 5 3 E - 10
13.07.2018 12:00:00 28,0 18,0 5 3 - - 10
13.07.2018 11:00:00 26,9 17,8 5 3 - 1018,0 10
13.07.2018 10:00:00 25,0 18,0 5 3 - - 10
13.07.2018 09:00:00 24,0 17,0 9 5 SW - 10
13.07.2018 08:00:00 22,0 15,3 9 5 SW 1018,0 10
13.07.2018 07:00:00 19,0 16,0 4 2 - - 10
13.07.2018 06:00:00 19,0 15,0 4 2 - - 10
13.07.2018 05:00:00 19,5 15,1 9 5 SW 1017,0 10
13.07.2018 04:00:00 21,0 16,0 11 6 SW - 10
13.07.2018 03:00:00 21,0 16,0 9 5 SW - 10
13.07.2018 02:00:00 20,9 16,4 8 4 SSW 1016,0 10
13.07.2018 01:00:00 22,0 18,0 8 4 SW - 10
13.07.2018 00:00:00 22,0 19,0 9 5 SW - 10
12.07.2018 23:00:00 23,1 19,6 4 2 - 1016,0 10
12.07.2018 22:00:00 24,0 18,0 5 3 ESE - 10
12.07.2018 21:00:00 26,0 19,0 9 5 S - 10
12.07.2018 20:00:00 27,8 19,2 4 2 - 1014,0 10
12.07.2018 19:00:00 29,0 17,0 8 4 ESE - 10
12.07.2018 18:00:00 29,0 18,0 11 6 SSW - 10
12.07.2018 17:00:00 28,7 17,1 8 4 N 1015,0 10
12.07.2018 16:00:00 29,0 18,0 9 5 NNE - 10
12.07.2018 15:00:00 28,0 16,0 8 4 N - 10
12.07.2018 14:00:00 28,2 16,9 8 4 NNE 1015,0 10
12.07.2018 13:00:00 27,0 17,0 5 3 - - 10
12.07.2018 12:00:00 26,0 18,0 2 1 - - 10
12.07.2018 11:00:00 24,0 18,5 4 2 - 1016,0 10
12.07.2018 10:00:00 22,0 18,0 5 3 - - 8
12.07.2018 09:00:00 21,0 18,0 8 4 SW - 10
12.07.2018 08:00:00 19,6 16,2 8 4 SSW 1015,0 10
12.07.2018 07:00:00 18,0 16,0 8 4 SSW - 10
12.07.2018 06:00:00 18,0 16,0 8 4 SSW - 7
12.07.2018 05:00:00 19,1 18,0 5 3 SW 1015,0 30
12.07.2018 04:00:00 19,0 19,0 4 2 WSW - 2,0
12.07.2018 03:00:00 20,0 19,0 8 4 W - 2,0
12.07.2018 02:00:00 20,6 19,2 5 3 SE 1014,0 10
12.07.2018 01:00:00 20,0 19,0 8 4 E - 10
12.07.2018 00:00:00 20,0 19,0 8 4 ENE - 10
11.07.2018 23:00:00 20,9 19,4 8 4 ENE 1013,0 10
11.07.2018 22:00:00 22,0 19,0 9 5 E - 10
11.07.2018 21:00:00 23,0 19,0 9 5 E - 10
11.07.2018 20:00:00 23,1 19,1 13 7 ESE 1012,0 10
11.07.2018 19:00:00 23,0 19,0 11 6 ESE - 10
11.07.2018 18:00:00 23,0 19,0 8 4 NE - 10
11.07.2018 17:00:00 22,3 19,0 11 6 NNE 1012,0 10
11.07.2018 16:00:00 24,0 19,0 8 4 N - 10
11.07.2018 15:00:00 23,0 19,0 9 5 NNE - 10
11.07.2018 14:00:00 23,9 19,7 11 6 NNE 1012,0 10
11.07.2018 13:00:00 23,0 19,0 9 5 ENE - 10
11.07.2018 12:00:00 22,0 19,0 13 7 ENE - 10
11.07.2018 11:00:00 21,6 19,4 11 6 E 1012,0 10
11.07.2018 10:00:00 20,0 19,0 8 4 ENE - 10
11.07.2018 09:00:00 19,0 18,0 8 4 E - 10
11.07.2018 08:00:00 18,7 17,7 8 4 NE 1013,0 7
11.07.2018 07:00:00 19,0 17,0 5 3 ENE - 8
11.07.2018 06:00:00 20,0 16,0 15 8 ESE - 10
11.07.2018 05:00:00 19,2 15,6 8 4 ESE 1013,0 10
11.07.2018 04:00:00 20,0 16,0 11 6 E - 10
11.07.2018 03:00:00 21,0 17,0 16 9 ENE - 10
11.07.2018 02:00:00 21,4 17,4 15 8 NE 1012,0 10
11.07.2018 01:00:00 24,0 15,0 8 4 S - 10
11.07.2018 00:00:00 24,0 15,0 11 6 SW - 10
10.07.2018 23:00:00 25,1 15,0 9 5 SSW 1011,0 10
10.07.2018 22:00:00 26,0 15,0 9 5 WSW - 10
10.07.2018 21:00:00 28,0 15,0 8 4 SSW - 10
10.07.2018 20:00:00 29,1 18,2 8 4 S 1010,0 10
10.07.2018 19:00:00 29,0 18,0 9 5 SSW - 10
10.07.2018 18:00:00 29,0 18,0 13 7 SSW - 10

tt = temperature
td = dewpoint
ff = wind speed
dd = wind direction
ppp = reduced air pressure
vv = visibility

Next stations